owner,sensor,date,latitude,longitude,sea_water_turbidity,qcFlag 
SCCF RECON,ioos:station:SCCF:51:1,2012-01-01T00:00:00Z,26.5545,-82.1715,9.73,1111122 
SCCF RECON,ioos:station:SCCF:51:1,2012-01-01T01:00:00Z,26.5545,-82.1715,11.78,1111122 
SCCF RECON,ioos:station:SCCF:51:1,2012-01-01T02:00:00Z,26.5545,-82.1715,10.86,1111122 
SCCF RECON,ioos:station:SCCF:51:1,2012-01-01T03:00:00Z,26.5545,-82.1715,10.26,1111122 
SCCF RECON,ioos:station:SCCF:51:1,2012-01-01T04:00:00Z,26.5545,-82.1715,3.56,1111122 
SCCF RECON,ioos:station:SCCF:51:1,2012-01-01T05:00:00Z,26.5545,-82.1715,3.28,1111122 
SCCF RECON,ioos:station:SCCF:51:1,2012-01-01T06:00:00Z,26.5545,-82.1715,3.01,1111122 
SCCF RECON,ioos:station:SCCF:51:1,2012-01-01T07:00:00Z,26.5545,-82.1715,5.3,1111122 
SCCF RECON,ioos:station:SCCF:51:1,2012-01-01T08:00:00Z,26.5545,-82.1715,5.78,1111122 
SCCF RECON,ioos:station:SCCF:51:1,2012-01-01T09:00:00Z,26.5545,-82.1715,6.76,1111122 
SCCF RECON,ioos:station:SCCF:51:1,2012-01-01T10:00:00Z,26.5545,-82.1715,6.78,1111122 
SCCF RECON,ioos:station:SCCF:51:1,2012-01-01T11:00:00Z,26.5545,-82.1715,7.12,1111122 
SCCF RECON,ioos:station:SCCF:51:1,2012-01-01T12:00:00Z,26.5545,-82.1715,7.1,1111122 
SCCF RECON,ioos:station:SCCF:51:1,2012-01-01T13:00:00Z,26.5545,-82.1715,6.76,1111122 
SCCF RECON,ioos:station:SCCF:51:1,2012-01-01T14:00:00Z,26.5545,-82.1715,6.5,1111122 
SCCF RECON,ioos:station:SCCF:51:1,2012-01-01T15:00:00Z,26.5545,-82.1715,5.65,1111122 
SCCF RECON,ioos:station:SCCF:51:1,2012-01-01T16:00:00Z,26.5545,-82.1715,6.15,1111122 
SCCF RECON,ioos:station:SCCF:51:1,2012-01-01T17:00:00Z,26.5545,-82.1715,7.01,1111122 
SCCF RECON,ioos:station:SCCF:51:1,2012-01-01T18:00:00Z,26.5545,-82.1715,12.17,1111122 
SCCF RECON,ioos:station:SCCF:51:1,2012-01-01T19:00:00Z,26.5545,-82.1715,5.82,1111122 
SCCF RECON,ioos:station:SCCF:51:1,2012-01-01T20:00:00Z,26.5545,-82.1715,3.96,1111122 
SCCF RECON,ioos:station:SCCF:51:1,2012-01-01T21:00:00Z,26.5545,-82.1715,10.06,1111122 
SCCF RECON,ioos:station:SCCF:51:1,2012-01-01T22:00:00Z,26.5545,-82.1715,14.75,1111122 
SCCF RECON,ioos:station:SCCF:51:1,2012-01-01T23:00:00Z,26.5545,-82.1715,7.51,1111122 
SCCF RECON,ioos:station:SCCF:51:1,2012-01-02T00:00:00Z,26.5545,-82.1715,6.07,1111122 
SCCF RECON,ioos:station:SCCF:51:1,2012-01-02T01:00:00Z,26.5545,-82.1715,7.09,1111122 
SCCF RECON,ioos:station:SCCF:51:1,2012-01-02T02:00:00Z,26.5545,-82.1715,5.46,1111122 
SCCF RECON,ioos:station:SCCF:51:1,2012-01-02T03:00:00Z,26.5545,-82.1715,8.28,1111122 
SCCF RECON,ioos:station:SCCF:51:1,2012-01-02T04:00:00Z,26.5545,-82.1715,5.26,1111122 
SCCF RECON,ioos:station:SCCF:51:1,2012-01-02T05:00:00Z,26.5545,-82.1715,5.12,1111122 
SCCF RECON,ioos:station:SCCF:51:1,2012-01-02T06:00:00Z,26.5545,-82.1715,4.8,1111122 
SCCF RECON,ioos:station:SCCF:51:1,2012-01-02T07:00:00Z,26.5545,-82.1715,3.89,1111122 
SCCF RECON,ioos:station:SCCF:51:1,2012-01-02T08:00:00Z,26.5545,-82.1715,4.81,1111122 
SCCF RECON,ioos:station:SCCF:51:1,2012-01-02T09:00:00Z,26.5545,-82.1715,6.99,1111122 
SCCF RECON,ioos:station:SCCF:51:1,2012-01-02T10:00:00Z,26.5545,-82.1715,6.26,1111122 
SCCF RECON,ioos:station:SCCF:51:1,2012-01-02T11:00:00Z,26.5545,-82.1715,8.58,1111122 
SCCF RECON,ioos:station:SCCF:51:1,2012-01-02T12:00:00Z,26.5545,-82.1715,6.76,1111122 
SCCF RECON,ioos:station:SCCF:51:1,2012-01-02T13:00:00Z,26.5545,-82.1715,6.23,1111122 
SCCF RECON,ioos:station:SCCF:51:1,2012-01-02T14:00:00Z,26.5545,-82.1715,10.17,1111122 
SCCF RECON,ioos:station:SCCF:51:1,2012-01-02T15:00:00Z,26.5545,-82.1715,6.68,1111122 
SCCF RECON,ioos:station:SCCF:51:1,2012-01-02T16:00:00Z,26.5545,-82.1715,7.79,1111122 
SCCF RECON,ioos:station:SCCF:51:1,2012-01-02T17:00:00Z,26.5545,-82.1715,9.94,1111122 
SCCF RECON,ioos:station:SCCF:51:1,2012-01-02T18:00:00Z,26.5545,-82.1715,11.07,1111122 
SCCF RECON,ioos:station:SCCF:51:1,2012-01-02T19:00:00Z,26.5545,-82.1715,8.56,1111122 
SCCF RECON,ioos:station:SCCF:51:1,2012-01-02T20:00:00Z,26.5545,-82.1715,10.43,1111122 
SCCF RECON,ioos:station:SCCF:51:1,2012-01-02T21:00:00Z,26.5545,-82.1715,14.81,1111122 
SCCF RECON,ioos:station:SCCF:51:1,2012-01-02T22:00:00Z,26.5545,-82.1715,13.22,1111122 
SCCF RECON,ioos:station:SCCF:51:1,2012-01-02T23:00:00Z,26.5545,-82.1715,17.74,1111122 
SCCF RECON,ioos:station:SCCF:51:1,2012-01-03T00:00:00Z,26.5545,-82.1715,16.26,1111122 
SCCF RECON,ioos:station:SCCF:51:1,2012-01-03T01:00:00Z,26.5545,-82.1715,23.52,1111122 
SCCF RECON,ioos:station:SCCF:51:1,2012-01-03T02:00:00Z,26.5545,-82.1715,25.27,1111122 
SCCF RECON,ioos:station:SCCF:51:1,2012-01-03T03:00:00Z,26.5545,-82.1715,17.89,1111122 
SCCF RECON,ioos:station:SCCF:51:1,2012-01-03T04:00:00Z,26.5545,-82.1715,19.37,1111122 
SCCF RECON,ioos:station:SCCF:51:1,2012-01-03T05:00:00Z,26.5545,-82.1715,16.33,1111122 
SCCF RECON,ioos:station:SCCF:51:1,2012-01-03T06:00:00Z,26.5545,-82.1715,16.51,1111122 
SCCF RECON,ioos:station:SCCF:51:1,2012-01-03T07:00:00Z,26.5545,-82.1715,22.67,1111122 
SCCF RECON,ioos:station:SCCF:51:1,2012-01-03T08:00:00Z,26.5545,-82.1715,25.76,1111122 
SCCF RECON,ioos:station:SCCF:51:1,2012-01-03T09:00:00Z,26.5545,-82.1715,30.45,1111122 
SCCF RECON,ioos:station:SCCF:51:1,2012-01-03T10:00:00Z,26.5545,-82.1715,27.81,1111122 
SCCF RECON,ioos:station:SCCF:51:1,2012-01-03T11:00:00Z,26.5545,-82.1715,34.43,1111122 
SCCF RECON,ioos:station:SCCF:51:1,2012-01-03T12:00:00Z,26.5545,-82.1715,36.59,1111122 
SCCF RECON,ioos:station:SCCF:51:1,2012-01-03T13:00:00Z,26.5545,-82.1715,39.29,1111122 
SCCF RECON,ioos:station:SCCF:51:1,2012-01-03T14:00:00Z,26.5545,-82.1715,40.15,1111122 
SCCF RECON,ioos:station:SCCF:51:1,2012-01-03T15:00:00Z,26.5545,-82.1715,48.15,1111122 
SCCF RECON,ioos:station:SCCF:51:1,2012-01-03T16:00:00Z,26.5545,-82.1715,45.65,1111122 
SCCF RECON,ioos:station:SCCF:51:1,2012-01-03T17:00:00Z,26.5545,-82.1715,34.08,1111122 
SCCF RECON,ioos:station:SCCF:51:1,2012-01-03T18:00:00Z,26.5545,-82.1715,32.54,1111122 
SCCF RECON,ioos:station:SCCF:51:1,2012-01-03T19:00:00Z,26.5545,-82.1715,32.11,1111122 
SCCF RECON,ioos:station:SCCF:51:1,2012-01-03T20:00:00Z,26.5545,-82.1715,39.87,1111122 
SCCF RECON,ioos:station:SCCF:51:1,2012-01-03T21:00:00Z,26.5545,-82.1715,33.7,1111122 
SCCF RECON,ioos:station:SCCF:51:1,2012-01-03T22:00:00Z,26.5545,-82.1715,27.21,1111122 
SCCF RECON,ioos:station:SCCF:51:1,2012-01-03T23:00:00Z,26.5545,-82.1715,23.13,1111122 
SCCF RECON,ioos:station:SCCF:51:1,2012-01-04T00:00:00Z,26.5545,-82.1715,18.83,1111122 
SCCF RECON,ioos:station:SCCF:51:1,2012-01-04T01:00:00Z,26.5545,-82.1715,18.86,1111122 
SCCF RECON,ioos:station:SCCF:51:1,2012-01-04T02:00:00Z,26.5545,-82.1715,13.64,1111122 
SCCF RECON,ioos:station:SCCF:51:1,2012-01-04T03:00:00Z,26.5545,-82.1715,11.44,1111122 
SCCF RECON,ioos:station:SCCF:51:1,2012-01-04T04:00:00Z,26.5545,-82.1715,12.99,1111122 
SCCF RECON,ioos:station:SCCF:51:1,2012-01-04T05:00:00Z,26.5545,-82.1715,15.64,1111122 
SCCF RECON,ioos:station:SCCF:51:1,2012-01-04T06:00:00Z,26.5545,-82.1715,14.92,1111122 
SCCF RECON,ioos:station:SCCF:51:1,2012-01-04T07:00:00Z,26.5545,-82.1715,16.63,1111122 
SCCF RECON,ioos:station:SCCF:51:1,2012-01-04T08:00:00Z,26.5545,-82.1715,18.21,1111122 
SCCF RECON,ioos:station:SCCF:51:1,2012-01-04T09:00:00Z,26.5545,-82.1715,16.73,1111122 
SCCF RECON,ioos:station:SCCF:51:1,2012-01-04T10:00:00Z,26.5545,-82.1715,16.0,1111122 
SCCF RECON,ioos:station:SCCF:51:1,2012-01-04T11:00:00Z,26.5545,-82.1715,15.36,1111122 
SCCF RECON,ioos:station:SCCF:51:1,2012-01-04T12:00:00Z,26.5545,-82.1715,17.09,1111122 
SCCF RECON,ioos:station:SCCF:51:1,2012-01-04T13:00:00Z,26.5545,-82.1715,20.24,1111122 
SCCF RECON,ioos:station:SCCF:51:1,2012-01-04T14:00:00Z,26.5545,-82.1715,21.17,1111122 
SCCF RECON,ioos:station:SCCF:51:1,2012-01-04T15:00:00Z,26.5545,-82.1715,27.99,1111122 
SCCF RECON,ioos:station:SCCF:51:1,2012-01-04T16:00:00Z,26.5545,-82.1715,21.27,1111122 
SCCF RECON,ioos:station:SCCF:51:1,2012-01-04T17:00:00Z,26.5545,-82.1715,17.15,1111122 
SCCF RECON,ioos:station:SCCF:51:1,2012-01-04T18:00:00Z,26.5545,-82.1715,13.18,1111122 
SCCF RECON,ioos:station:SCCF:51:1,2012-01-04T19:00:00Z,26.5545,-82.1715,11.06,1111122 
SCCF RECON,ioos:station:SCCF:51:1,2012-01-04T20:00:00Z,26.5545,-82.1715,10.24,1111122 
SCCF RECON,ioos:station:SCCF:51:1,2012-01-04T21:00:00Z,26.5545,-82.1715,10.18,1111122 
SCCF RECON,ioos:station:SCCF:51:1,2012-01-04T22:00:00Z,26.5545,-82.1715,17.07,1111122 
SCCF RECON,ioos:station:SCCF:51:1,2012-01-04T23:00:00Z,26.5545,-82.1715,12.99,1111122 
SCCF RECON,ioos:station:SCCF:51:1,2012-01-05T00:00:00Z,26.5545,-82.1715,11.14,1111122 
SCCF RECON,ioos:station:SCCF:51:1,2012-01-05T01:00:00Z,26.5545,-82.1715,13.5,1111122 
SCCF RECON,ioos:station:SCCF:51:1,2012-01-05T02:00:00Z,26.5545,-82.1715,11.19,1111122 
SCCF RECON,ioos:station:SCCF:51:1,2012-01-05T03:00:00Z,26.5545,-82.1715,11.79,1111122 
SCCF RECON,ioos:station:SCCF:51:1,2012-01-05T04:00:00Z,26.5545,-82.1715,11.18,1111122 
SCCF RECON,ioos:station:SCCF:51:1,2012-01-05T05:00:00Z,26.5545,-82.1715,9.71,1111122 
SCCF RECON,ioos:station:SCCF:51:1,2012-01-05T06:00:00Z,26.5545,-82.1715,9.62,1111122 
SCCF RECON,ioos:station:SCCF:51:1,2012-01-05T07:00:00Z,26.5545,-82.1715,10.0,1111122 
SCCF RECON,ioos:station:SCCF:51:1,2012-01-05T08:00:00Z,26.5545,-82.1715,10.29,1111122 
SCCF RECON,ioos:station:SCCF:51:1,2012-01-05T09:00:00Z,26.5545,-82.1715,12.01,1111122 
SCCF RECON,ioos:station:SCCF:51:1,2012-01-05T10:00:00Z,26.5545,-82.1715,12.07,1111122 
SCCF RECON,ioos:station:SCCF:51:1,2012-01-05T11:00:00Z,26.5545,-82.1715,9.97,1111122 
SCCF RECON,ioos:station:SCCF:51:1,2012-01-05T12:00:00Z,26.5545,-82.1715,9.44,1111122 
SCCF RECON,ioos:station:SCCF:51:1,2012-01-05T13:00:00Z,26.5545,-82.1715,9.99,1111122 
SCCF RECON,ioos:station:SCCF:51:1,2012-01-05T14:00:00Z,26.5545,-82.1715,14.18,1111122 
SCCF RECON,ioos:station:SCCF:51:1,2012-01-05T15:00:00Z,26.5545,-82.1715,16.46,1111122 
SCCF RECON,ioos:station:SCCF:51:1,2012-01-05T16:00:00Z,26.5545,-82.1715,15.45,1111122 
SCCF RECON,ioos:station:SCCF:51:1,2012-01-05T17:00:00Z,26.5545,-82.1715,13.68,1111122 
SCCF RECON,ioos:station:SCCF:51:1,2012-01-05T18:00:00Z,26.5545,-82.1715,13.8,1111122 
SCCF RECON,ioos:station:SCCF:51:1,2012-01-05T19:00:00Z,26.5545,-82.1715,15.57,1111122 
SCCF RECON,ioos:station:SCCF:51:1,2012-01-05T20:00:00Z,26.5545,-82.1715,8.8,1111122 
SCCF RECON,ioos:station:SCCF:51:1,2012-01-05T21:00:00Z,26.5545,-82.1715,9.36,1111122 
SCCF RECON,ioos:station:SCCF:51:1,2012-01-05T22:00:00Z,26.5545,-82.1715,11.94,1111122 
SCCF RECON,ioos:station:SCCF:51:1,2012-01-05T23:00:00Z,26.5545,-82.1715,12.22,1111122 
SCCF RECON,ioos:station:SCCF:51:1,2012-01-06T00:00:00Z,26.5545,-82.1715,9.89,1111122 
SCCF RECON,ioos:station:SCCF:51:1,2012-01-06T01:00:00Z,26.5545,-82.1715,8.49,1111122 
SCCF RECON,ioos:station:SCCF:51:1,2012-01-06T02:00:00Z,26.5545,-82.1715,7.81,1111122 
SCCF RECON,ioos:station:SCCF:51:1,2012-01-06T03:00:00Z,26.5545,-82.1715,8.39,1111122 
SCCF RECON,ioos:station:SCCF:51:1,2012-01-06T04:00:00Z,26.5545,-82.1715,7.22,1111122 
SCCF RECON,ioos:station:SCCF:51:1,2012-01-06T05:00:00Z,26.5545,-82.1715,7.79,1111122 
SCCF RECON,ioos:station:SCCF:51:1,2012-01-06T06:00:00Z,26.5545,-82.1715,9.45,1111122 
SCCF RECON,ioos:station:SCCF:51:1,2012-01-06T07:00:00Z,26.5545,-82.1715,8.72,1111122 
SCCF RECON,ioos:station:SCCF:51:1,2012-01-06T08:00:00Z,26.5545,-82.1715,7.72,1111122 
SCCF RECON,ioos:station:SCCF:51:1,2012-01-06T09:00:00Z,26.5545,-82.1715,6.95,1111122 
SCCF RECON,ioos:station:SCCF:51:1,2012-01-06T10:00:00Z,26.5545,-82.1715,6.74,1111122 
SCCF RECON,ioos:station:SCCF:51:1,2012-01-06T11:00:00Z,26.5545,-82.1715,7.56,1111122 
SCCF RECON,ioos:station:SCCF:51:1,2012-01-06T12:00:00Z,26.5545,-82.1715,7.58,1111122 
SCCF RECON,ioos:station:SCCF:51:1,2012-01-06T13:00:00Z,26.5545,-82.1715,11.15,1111122 
SCCF RECON,ioos:station:SCCF:51:1,2012-01-06T14:00:00Z,26.5545,-82.1715,9.63,1111122 
SCCF RECON,ioos:station:SCCF:51:1,2012-01-06T15:00:00Z,26.5545,-82.1715,8.7,1111122 
SCCF RECON,ioos:station:SCCF:51:1,2012-01-06T16:00:00Z,26.5545,-82.1715,9.22,1111122 
SCCF RECON,ioos:station:SCCF:51:1,2012-01-06T17:00:00Z,26.5545,-82.1715,8.67,1111122 
SCCF RECON,ioos:station:SCCF:51:1,2012-01-06T18:00:00Z,26.5545,-82.1715,8.54,1111122 
SCCF RECON,ioos:station:SCCF:51:1,2012-01-06T19:00:00Z,26.5545,-82.1715,8.39,1111122 
SCCF RECON,ioos:station:SCCF:51:1,2012-01-06T20:00:00Z,26.5545,-82.1715,8.33,1111122 
SCCF RECON,ioos:station:SCCF:51:1,2012-01-06T21:00:00Z,26.5545,-82.1715,9.18,1111122 
SCCF RECON,ioos:station:SCCF:51:1,2012-01-06T22:00:00Z,26.5545,-82.1715,7.29,1111122 
SCCF RECON,ioos:station:SCCF:51:1,2012-01-06T23:00:00Z,26.5545,-82.1715,7.46,1111122 
SCCF RECON,ioos:station:SCCF:51:1,2012-01-07T00:00:00Z,26.5545,-82.1715,8.19,1111122 
SCCF RECON,ioos:station:SCCF:51:1,2012-01-07T01:00:00Z,26.5545,-82.1715,6.48,1111122 
SCCF RECON,ioos:station:SCCF:51:1,2012-01-07T02:00:00Z,26.5545,-82.1715,5.22,1111122 
SCCF RECON,ioos:station:SCCF:51:1,2012-01-07T03:00:00Z,26.5545,-82.1715,5.44,1111122 
SCCF RECON,ioos:station:SCCF:51:1,2012-01-07T04:00:00Z,26.5545,-82.1715,5.5,1111122 
SCCF RECON,ioos:station:SCCF:51:1,2012-01-07T05:00:00Z,26.5545,-82.1715,6.02,1111122 
SCCF RECON,ioos:station:SCCF:51:1,2012-01-07T06:00:00Z,26.5545,-82.1715,6.93,1111122 
SCCF RECON,ioos:station:SCCF:51:1,2012-01-07T07:00:00Z,26.5545,-82.1715,7.36,1111122 
SCCF RECON,ioos:station:SCCF:51:1,2012-01-07T08:00:00Z,26.5545,-82.1715,6.66,1111122 
SCCF RECON,ioos:station:SCCF:51:1,2012-01-07T09:00:00Z,26.5545,-82.1715,6.88,1111122 
SCCF RECON,ioos:station:SCCF:51:1,2012-01-07T10:00:00Z,26.5545,-82.1715,6.98,1111122 
SCCF RECON,ioos:station:SCCF:51:1,2012-01-07T11:00:00Z,26.5545,-82.1715,6.65,1111122 
SCCF RECON,ioos:station:SCCF:51:1,2012-01-07T12:00:00Z,26.5545,-82.1715,6.41,1111122 
SCCF RECON,ioos:station:SCCF:51:1,2012-01-07T13:00:00Z,26.5545,-82.1715,7.25,1111122 
SCCF RECON,ioos:station:SCCF:51:1,2012-01-07T14:00:00Z,26.5545,-82.1715,6.16,1111122 
SCCF RECON,ioos:station:SCCF:51:1,2012-01-07T15:00:00Z,26.5545,-82.1715,7.2,1111122 
SCCF RECON,ioos:station:SCCF:51:1,2012-01-07T16:00:00Z,26.5545,-82.1715,7.2,1111122 
SCCF RECON,ioos:station:SCCF:51:1,2012-01-07T17:00:00Z,26.5545,-82.1715,7.05,1111122 
SCCF RECON,ioos:station:SCCF:51:1,2012-01-07T18:00:00Z,26.5545,-82.1715,7.71,1111122 
SCCF RECON,ioos:station:SCCF:51:1,2012-01-07T19:00:00Z,26.5545,-82.1715,7.01,1111122 
SCCF RECON,ioos:station:SCCF:51:1,2012-01-07T20:00:00Z,26.5545,-82.1715,8.9,1111122 
SCCF RECON,ioos:station:SCCF:51:1,2012-01-07T21:00:00Z,26.5545,-82.1715,9.51,1111122 
SCCF RECON,ioos:station:SCCF:51:1,2012-01-07T22:00:00Z,26.5545,-82.1715,6.56,1111122 
SCCF RECON,ioos:station:SCCF:51:1,2012-01-07T23:00:00Z,26.5545,-82.1715,8.71,1111122 
SCCF RECON,ioos:station:SCCF:51:1,2012-01-08T00:00:00Z,26.5545,-82.1715,8.04,1111122 
SCCF RECON,ioos:station:SCCF:51:1,2012-01-08T01:00:00Z,26.5545,-82.1715,7.16,1111122 
SCCF RECON,ioos:station:SCCF:51:1,2012-01-08T02:00:00Z,26.5545,-82.1715,5.27,1111122 
SCCF RECON,ioos:station:SCCF:51:1,2012-01-08T03:00:00Z,26.5545,-82.1715,4.86,1111122 
SCCF RECON,ioos:station:SCCF:51:1,2012-01-08T04:00:00Z,26.5545,-82.1715,5.65,1111122 
SCCF RECON,ioos:station:SCCF:51:1,2012-01-08T05:00:00Z,26.5545,-82.1715,5.45,1111122 
SCCF RECON,ioos:station:SCCF:51:1,2012-01-08T06:00:00Z,26.5545,-82.1715,5.93,1111122 
SCCF RECON,ioos:station:SCCF:51:1,2012-01-08T07:00:00Z,26.5545,-82.1715,7.63,1111122 
SCCF RECON,ioos:station:SCCF:51:1,2012-01-08T08:00:00Z,26.5545,-82.1715,7.48,1111122 
SCCF RECON,ioos:station:SCCF:51:1,2012-01-08T09:00:00Z,26.5545,-82.1715,7.05,1111122 
SCCF RECON,ioos:station:SCCF:51:1,2012-01-08T10:00:00Z,26.5545,-82.1715,7.89,1111122 
SCCF RECON,ioos:station:SCCF:51:1,2012-01-08T11:00:00Z,26.5545,-82.1715,8.1,1111122 
SCCF RECON,ioos:station:SCCF:51:1,2012-01-08T12:00:00Z,26.5545,-82.1715,7.2,1111122 
SCCF RECON,ioos:station:SCCF:51:1,2012-01-08T13:00:00Z,26.5545,-82.1715,7.69,1111122 
SCCF RECON,ioos:station:SCCF:51:1,2012-01-08T14:00:00Z,26.5545,-82.1715,7.77,1111122 
SCCF RECON,ioos:station:SCCF:51:1,2012-01-08T15:00:00Z,26.5545,-82.1715,8.23,1111122 
SCCF RECON,ioos:station:SCCF:51:1,2012-01-08T16:00:00Z,26.5545,-82.1715,8.18,1111122 
SCCF RECON,ioos:station:SCCF:51:1,2012-01-08T17:00:00Z,26.5545,-82.1715,7.95,1111122 
SCCF RECON,ioos:station:SCCF:51:1,2012-01-08T18:00:00Z,26.5545,-82.1715,7.3,1111122 
SCCF RECON,ioos:station:SCCF:51:1,2012-01-08T19:00:00Z,26.5545,-82.1715,6.79,1111122 
SCCF RECON,ioos:station:SCCF:51:1,2012-01-08T20:00:00Z,26.5545,-82.1715,9.66,1111122 
SCCF RECON,ioos:station:SCCF:51:1,2012-01-08T21:00:00Z,26.5545,-82.1715,9.57,1111122 
SCCF RECON,ioos:station:SCCF:51:1,2012-01-08T22:00:00Z,26.5545,-82.1715,8.4,1111122 
SCCF RECON,ioos:station:SCCF:51:1,2012-01-08T23:00:00Z,26.5545,-82.1715,8.07,1111122 
SCCF RECON,ioos:station:SCCF:51:1,2012-01-09T00:00:00Z,26.5545,-82.1715,7.23,1111122 
SCCF RECON,ioos:station:SCCF:51:1,2012-01-09T01:00:00Z,26.5545,-82.1715,6.21,1111122 
SCCF RECON,ioos:station:SCCF:51:1,2012-01-09T02:00:00Z,26.5545,-82.1715,7.05,1111122 
SCCF RECON,ioos:station:SCCF:51:1,2012-01-09T03:00:00Z,26.5545,-82.1715,4.95,1111122 
SCCF RECON,ioos:station:SCCF:51:1,2012-01-09T04:00:00Z,26.5545,-82.1715,4.27,1111122 
SCCF RECON,ioos:station:SCCF:51:1,2012-01-09T05:00:00Z,26.5545,-82.1715,4.09,1111122 
SCCF RECON,ioos:station:SCCF:51:1,2012-01-09T06:00:00Z,26.5545,-82.1715,5.25,1111122 
SCCF RECON,ioos:station:SCCF:51:1,2012-01-09T07:00:00Z,26.5545,-82.1715,6.8,1111122 
SCCF RECON,ioos:station:SCCF:51:1,2012-01-09T08:00:00Z,26.5545,-82.1715,7.76,1111122 
SCCF RECON,ioos:station:SCCF:51:1,2012-01-09T09:00:00Z,26.5545,-82.1715,7.08,1111122 
SCCF RECON,ioos:station:SCCF:51:1,2012-01-09T10:00:00Z,26.5545,-82.1715,7.89,1111122 
SCCF RECON,ioos:station:SCCF:51:1,2012-01-09T11:00:00Z,26.5545,-82.1715,7.67,1111122 
SCCF RECON,ioos:station:SCCF:51:1,2012-01-09T12:00:00Z,26.5545,-82.1715,7.9,1111122 
SCCF RECON,ioos:station:SCCF:51:1,2012-01-09T13:00:00Z,26.5545,-82.1715,7.98,1111122 
SCCF RECON,ioos:station:SCCF:51:1,2012-01-09T14:00:00Z,26.5545,-82.1715,8.48,1111122 
SCCF RECON,ioos:station:SCCF:51:1,2012-01-09T15:00:00Z,26.5545,-82.1715,7.63,1111122 
SCCF RECON,ioos:station:SCCF:51:1,2012-01-09T16:00:00Z,26.5545,-82.1715,8.49,1111122 
SCCF RECON,ioos:station:SCCF:51:1,2012-01-09T17:00:00Z,26.5545,-82.1715,7.86,1111122 
SCCF RECON,ioos:station:SCCF:51:1,2012-01-09T18:00:00Z,26.5545,-82.1715,7.63,1111122 
SCCF RECON,ioos:station:SCCF:51:1,2012-01-09T19:00:00Z,26.5545,-82.1715,7.76,1111122 
SCCF RECON,ioos:station:SCCF:51:1,2012-01-09T20:00:00Z,26.5545,-82.1715,7.48,1111122 
SCCF RECON,ioos:station:SCCF:51:1,2012-01-09T21:00:00Z,26.5545,-82.1715,8.13,1111122 
SCCF RECON,ioos:station:SCCF:51:1,2012-01-09T22:00:00Z,26.5545,-82.1715,8.09,1111122 
SCCF RECON,ioos:station:SCCF:51:1,2012-01-09T23:00:00Z,26.5545,-82.1715,8.18,1111122 
SCCF RECON,ioos:station:SCCF:51:1,2012-01-10T00:00:00Z,26.5545,-82.1715,7.15,1111122 
SCCF RECON,ioos:station:SCCF:51:1,2012-01-10T01:00:00Z,26.5545,-82.1715,6.66,1111122 
SCCF RECON,ioos:station:SCCF:51:1,2012-01-10T02:00:00Z,26.5545,-82.1715,9.13,1111122 
SCCF RECON,ioos:station:SCCF:51:1,2012-01-10T03:00:00Z,26.5545,-82.1715,5.06,1111122 
SCCF RECON,ioos:station:SCCF:51:1,2012-01-10T04:00:00Z,26.5545,-82.1715,4.53,1111122 
SCCF RECON,ioos:station:SCCF:51:1,2012-01-10T05:00:00Z,26.5545,-82.1715,4.69,1111122 
SCCF RECON,ioos:station:SCCF:51:1,2012-01-10T06:00:00Z,26.5545,-82.1715,4.72,1111122 
SCCF RECON,ioos:station:SCCF:51:1,2012-01-10T07:00:00Z,26.5545,-82.1715,5.82,1111122 
SCCF RECON,ioos:station:SCCF:51:1,2012-01-10T08:00:00Z,26.5545,-82.1715,8.39,1111122 
SCCF RECON,ioos:station:SCCF:51:1,2012-01-10T09:00:00Z,26.5545,-82.1715,6.38,1111122 
SCCF RECON,ioos:station:SCCF:51:1,2012-01-10T10:00:00Z,26.5545,-82.1715,7.31,1111122 
SCCF RECON,ioos:station:SCCF:51:1,2012-01-10T11:00:00Z,26.5545,-82.1715,8.24,1111122 
SCCF RECON,ioos:station:SCCF:51:1,2012-01-10T12:00:00Z,26.5545,-82.1715,7.38,1111122 
SCCF RECON,ioos:station:SCCF:51:1,2012-01-10T13:00:00Z,26.5545,-82.1715,6.99,1111122 
SCCF RECON,ioos:station:SCCF:51:1,2012-01-10T14:00:00Z,26.5545,-82.1715,6.3,1111122 
SCCF RECON,ioos:station:SCCF:51:1,2012-01-10T15:00:00Z,26.5545,-82.1715,7.25,1111122 
SCCF RECON,ioos:station:SCCF:51:1,2012-01-10T16:00:00Z,26.5545,-82.1715,8.48,1111122 
SCCF RECON,ioos:station:SCCF:51:1,2012-01-10T17:00:00Z,26.5545,-82.1715,7.32,1111122 
SCCF RECON,ioos:station:SCCF:51:1,2012-01-10T18:00:00Z,26.5545,-82.1715,7.91,1111122 
SCCF RECON,ioos:station:SCCF:51:1,2012-01-10T19:00:00Z,26.5545,-82.1715,8.69,1111122 
SCCF RECON,ioos:station:SCCF:51:1,2012-01-10T20:00:00Z,26.5545,-82.1715,6.45,1111122 
SCCF RECON,ioos:station:SCCF:51:1,2012-01-10T21:00:00Z,26.5545,-82.1715,6.02,1111122 
SCCF RECON,ioos:station:SCCF:51:1,2012-01-10T22:00:00Z,26.5545,-82.1715,8.82,1111122 
SCCF RECON,ioos:station:SCCF:51:1,2012-01-10T23:00:00Z,26.5545,-82.1715,6.43,1111122 
SCCF RECON,ioos:station:SCCF:51:1,2012-01-11T00:00:00Z,26.5545,-82.1715,6.88,1111122 
SCCF RECON,ioos:station:SCCF:51:1,2012-01-11T01:00:00Z,26.5545,-82.1715,6.89,1111122 
SCCF RECON,ioos:station:SCCF:51:1,2012-01-11T02:00:00Z,26.5545,-82.1715,5.96,1111122 
SCCF RECON,ioos:station:SCCF:51:1,2012-01-11T03:00:00Z,26.5545,-82.1715,8.9,1111122 
SCCF RECON,ioos:station:SCCF:51:1,2012-01-11T04:00:00Z,26.5545,-82.1715,5.71,1111122 
SCCF RECON,ioos:station:SCCF:51:1,2012-01-11T05:00:00Z,26.5545,-82.1715,4.94,1111122 
SCCF RECON,ioos:station:SCCF:51:1,2012-01-11T06:00:00Z,26.5545,-82.1715,5.33,1111122 
SCCF RECON,ioos:station:SCCF:51:1,2012-01-11T07:00:00Z,26.5545,-82.1715,4.16,1111122 
SCCF RECON,ioos:station:SCCF:51:1,2012-01-11T08:00:00Z,26.5545,-82.1715,5.53,1111122 
SCCF RECON,ioos:station:SCCF:51:1,2012-01-11T09:00:00Z,26.5545,-82.1715,6.47,1111122 
SCCF RECON,ioos:station:SCCF:51:1,2012-01-11T10:00:00Z,26.5545,-82.1715,8.25,1111122 
SCCF RECON,ioos:station:SCCF:51:1,2012-01-11T11:00:00Z,26.5545,-82.1715,8.42,1111122 
SCCF RECON,ioos:station:SCCF:51:1,2012-01-11T12:00:00Z,26.5545,-82.1715,11.53,1111122 
SCCF RECON,ioos:station:SCCF:51:1,2012-01-11T13:00:00Z,26.5545,-82.1715,13.79,1111122 
SCCF RECON,ioos:station:SCCF:51:1,2012-01-11T14:00:00Z,26.5545,-82.1715,14.66,1111122 
SCCF RECON,ioos:station:SCCF:51:1,2012-01-11T15:00:00Z,26.5545,-82.1715,14.41,1111122 
SCCF RECON,ioos:station:SCCF:51:1,2012-01-11T16:00:00Z,26.5545,-82.1715,22.02,1111122 
SCCF RECON,ioos:station:SCCF:51:1,2012-01-11T17:00:00Z,26.5545,-82.1715,14.96,1111122 
SCCF RECON,ioos:station:SCCF:51:1,2012-01-11T18:00:00Z,26.5545,-82.1715,18.52,1111122 
SCCF RECON,ioos:station:SCCF:51:1,2012-01-11T19:00:00Z,26.5545,-82.1715,13.01,1111122 
SCCF RECON,ioos:station:SCCF:51:1,2012-01-11T20:00:00Z,26.5545,-82.1715,11.11,1111122 
SCCF RECON,ioos:station:SCCF:51:1,2012-01-11T21:00:00Z,26.5545,-82.1715,9.75,1111122 
SCCF RECON,ioos:station:SCCF:51:1,2012-01-11T22:00:00Z,26.5545,-82.1715,10.23,1111122 
SCCF RECON,ioos:station:SCCF:51:1,2012-01-11T23:00:00Z,26.5545,-82.1715,8.61,1111122 
SCCF RECON,ioos:station:SCCF:51:1,2012-01-12T00:00:00Z,26.5545,-82.1715,7.92,1111122 
SCCF RECON,ioos:station:SCCF:51:1,2012-01-12T01:00:00Z,26.5545,-82.1715,8.56,1111122 
SCCF RECON,ioos:station:SCCF:51:1,2012-01-12T02:00:00Z,26.5545,-82.1715,8.55,1111122 
SCCF RECON,ioos:station:SCCF:51:1,2012-01-12T03:00:00Z,26.5545,-82.1715,8.66,1111122 
SCCF RECON,ioos:station:SCCF:51:1,2012-01-12T04:00:00Z,26.5545,-82.1715,14.71,1111122 
SCCF RECON,ioos:station:SCCF:51:1,2012-01-12T05:00:00Z,26.5545,-82.1715,14.66,1111122 
SCCF RECON,ioos:station:SCCF:51:1,2012-01-12T06:00:00Z,26.5545,-82.1715,11.58,1111122 
SCCF RECON,ioos:station:SCCF:51:1,2012-01-12T07:00:00Z,26.5545,-82.1715,9.81,1111122 
SCCF RECON,ioos:station:SCCF:51:1,2012-01-12T08:00:00Z,26.5545,-82.1715,12.47,1111122 
SCCF RECON,ioos:station:SCCF:51:1,2012-01-12T09:00:00Z,26.5545,-82.1715,5.96,1111122 
SCCF RECON,ioos:station:SCCF:51:1,2012-01-12T10:00:00Z,26.5545,-82.1715,7.55,1111122 
SCCF RECON,ioos:station:SCCF:51:1,2012-01-12T11:00:00Z,26.5545,-82.1715,6.16,1111122 
SCCF RECON,ioos:station:SCCF:51:1,2012-01-12T12:00:00Z,26.5545,-82.1715,5.72,1111122 